0 HST 1 20580U 90037B 25294.26426360 .00010878 00000-0 38989-3 0 9999 2 20580 28.4689 269.3969 0002100 16.8790 343.1874 15.27051558751969 0 ISS (ZARYA) 1 25544U 98067A 25295.00800236 .00014857 00000-0 27406-3 0 9999 2 25544 51.6346 38.5904 0004414 322.0877 37.9800 15.49333878534839 0 CXO 1 25867U 99040B 25296.37207216 .00000767 00000-0 00000-0 0 9992 2 25867 52.0490 124.4132 8221787 310.6302 0.1667 0.37807083 16426